Wind_Speed
38 31 37 37 35 29 22 24 17 15 8 16 18 16 15 15 14 12 12 10 8 8 7 9 13 12 9 8 8 9 11 12 15
43 35 34 35 36 27 23 20 19 17 8 10 16 17 16 15 13 13 10 10 10 9 10 5 6 7 10 10 8 8 12 12 14
42 45 40 34 29 29 22 24 25 22 15 6 16 17 17 17 16 14 14 12 9 5 7 5 6 6 8 9 10 8 8 9 10
39 41 38 40 36 35 21 23 26 21 24 9 13 19 17 17 16 15 13 13 10 7 7 7 5 7 7 7 6 7 7 8 10
33 43 38 32 31 20 24 26 27 22 21 17 13 16 18 18 17 16 16 16 15 12 11 11 11 9 8 7 7 7 6 6 5
15 34 34 36 37 32 36 31 35 32 21 15 21 16 14 17 15 13 15 15 15 14 13 13 13 13 11 11 10 10 10 9 8
17 23 31 37 39 34 30 31 46 41 21 21 14 16 20 15 13 13 11 12 14 14 13 16 16 13 13 15 16 13 11 10 11
18 23 26 39 42 33 35 26 31 28 26 26 29 23 24 18 15 17 17 18 16 19 16 16 18 18 18 18 17 14 13 12 13
22 26 33 35 41 36 35 26 30 22 18 30 27 25 27 16 19 24 26 23 24 28 24 22 19 23 22 19 15 14 14 12 14
11 24 34 37 32 31 28 35 31 33 28 18 17 15 18 21 22 19 20 18 19 25 30 29 33 24 21 20 19 16 15 16 15
12 19 24 30 33 37 25 27 31 32 27 22 28 26 23 21 19 22 24 26 25 25 27 35 30 23 25 21 20 17 16 16 15
21 17 18 17 19 24 20 20 22 28 34 36 33 31 30 26 20 23 20 16 12 14 22 21 21 25 25 27 26 19 18 17 16
6 8 16 18 21 24 23 20 18 16 17 21 25 26 27 27 23 19 14 7 5 7 11 15 23 32 28 27 23 23 19 17 15
5 7 11 14 20 21 23 22 19 19 21 24 26 27 28 27 23 20 15 12 8 6 8 11 8 12 16 22 24 24 20 25 18
14 12 12 15 18 15 18 18 19 20 20 21 21 23 25 25 26 23 21 19 14 13 12 12 10 10 10 12 15 17 17 21 26
16 15 15 17 15 13 14 15 16 16 19 24 22 19 24 27 28 26 22 20 18 16 14 13 13 12 10 10 10 8 16 21 23
15 16 17 17 15 17 17 18 17 16 18 19 23 22 23 27 26 24 24 23 19 20 21 19 15 13 12 13 13 13 12 15 17
13 17 16 15 14 12 12 12 10 10 14 15 20 25 26 24 29 30 27 26 22 23 24 22 20 19 15 15 15 15 16 18 20
11 10 10 12 11 10 7 8 11 11 15 19 18 25 22 25 26 29 27 30 29 33 27 26 22 23 20 19 19 20 21 21 22
13 11 10 9 9 10 12 12 14 16 16 15 18 18 18 20 20 19 21 22 26 28 23 24 19 21 22 22 22 22 22 22 22
Wind_Direction
212 180 192 204 200 213 223 233 260 232 186 210 207 210 202 194 202 200 188 189 182 188 202 191 187 183 204 212 209 209 192 193 208
202 201 207 208 209 222 213 229 250 217 170 221 217 215 215 199 209 217 215 217 202 213 215 161 186 196 204 207 218 219 220 214 212
205 209 200 212 208 216 212 228 245 239 220 234 232 223 220 215 213 216 213 221 231 230 204 207 205 200 217 212 213 220 229 231 230
215 209 213 207 219 228 209 232 240 243 231 229 240 226 223 218 214 219 222 218 238 243 223 227 192 204 213 184 208 217 233 232 233
218 219 218 215 231 210 200 219 231 215 222 236 245 229 216 213 213 216 218 230 238 232 222 213 218 234 230 200 203 214 221 226 225
219 214 210 203 215 217 212 217 216 211 211 250 257 207 201 205 211 221 227 227 235 241 236 229 224 228 235 231 223 226 235 231 226
220 207 207 214 212 215 217 232 215 198 203 230 241 217 207 205 215 208 247 231 231 230 235 238 233 231 227 228 233 231 230 232 236
213 205 203 214 216 221 228 227 219 203 239 218 236 259 219 223 225 233 257 265 237 256 237 237 239 233 230 230 226 234 235 237 228
210 213 216 213 221 228 225 224 201 243 244 232 230 240 217 233 262 251 262 261 260 256 256 248 235 234 234 234 234 239 238 235 247
163 208 209 214 217 216 236 234 237 235 243 220 221 238 272 259 251 266 269 269 263 257 253 236 240 234 237 237 236 244 246 243 241
197 228 214 214 220 229 232 232 220 231 239 230 239 244 254 254 267 262 279 274 261 249 249 241 233 241 246 232 231 235 238 245 250
203 209 215 219 225 226 226 232 233 241 240 243 246 247 250 253 259 264 276 263 260 271 240 231 233 234 243 251 247 231 238 242 238
196 231 233 232 240 232 227 226 219 222 238 235 239 245 253 254 267 258 251 227 217 225 223 226 242 221 243 251 221 224 224 233 240
268 289 210 226 229 224 235 234 238 236 233 235 242 245 249 251 247 238 242 235 235 229 189 228 239 231 223 231 234 225 236 236 247
249 284 252 216 220 213 223 225 230 234 238 239 242 246 241 229 228 230 238 235 233 230 229 243 244 236 232 232 226 241 246 243 241
272 272 246 232 226 230 229 229 225 230 238 236 249 256 230 227 225 230 237 239 243 240 239 241 238 230 227 223 229 227 215 230 244
271 272 249 243 230 227 233 240 246 242 231 234 232 242 236 234 233 231 242 253 268 253 243 249 246 243 243 246 235 229 228 232 237
254 257 254 239 236 236 245 257 254 246 235 242 237 239 238 248 250 254 256 261 258 248 235 233 247 246 219 223 229 231 232 236 245
250 249 242 243 250 265 250 263 275 267 250 255 254 254 264 250 250 252 250 258 235 232 232 234 225 235 235 230 238 244 247 252 255
255 252 257 253 253 260 279 276 272 259 257 254 256 254 252 251 251 237 240 237 230 227 221 217 224 236 244 247 246 248 251 253 257
Height
3176 3181 3186 3192 3197 3199 3201 3203 3208 3212 3214 3217 3219 3221 3222 3225 3227 3229 3230 3232 3234 3233 3235 3236 3237 3239 3240 3243 3244 3247 3249 3251 3253
3173 3179 3183 3189 3194 3198 3200 3202 3204 3210 3212 3216 3218 3220 3222 3224 3226 3228 3229 3231 3232 3232 3235 3236 3238 3240 3241 3242 3245 3247 3248 3249 3251
3171 3178 3182 3186 3188 3193 3198 3203 3205 3207 3210 3214 3217 3219 3221 3223 3224 3226 3229 3228 3230 3232 3235 3234 3235 3238 3241 3241 3243 3244 3245 3246 3248
3167 3170 3178 3182 3186 3191 3196 3202 3201 3203 3207 3211 3214 3217 3219 3221 3222 3224 3226 3228 3228 3230 3233 3234 3234 3236 3237 3237 3240 3241 3242 3243 3245
3160 3166 3173 3179 3182 3187 3192 3196 3197 3199 3205 3209 3211 3214 3216 3219 3220 3221 3224 3226 3228 3230 3232 3233 3235 3236 3236 3235 3237 3238 3240 3241 3243
3156 3163 3169 3176 3180 3182 3186 3189 3190 3194 3199 3204 3208 3210 3212 3214 3217 3220 3223 3224 3225 3227 3229 3231 3232 3233 3234 3235 3235 3235 3236 3239 3241
3154 3158 3163 3168 3173 3176 3179 3183 3182 3180 3193 3201 3204 3208 3207 3210 3215 3215 3219 3221 3222 3223 3225 3227 3228 3230 3230 3230 3231 3233 3234 3236 3237
3153 3156 3157 3159 3164 3168 3175 3179 3177 3185 3191 3196 3199 3203 3205 3207 3212 3213 3214 3215 3218 3220 3221 3222 3223 3224 3226 3226 3228 3230 3231 3233 3235
3149 3153 3154 3156 3162 3166 3172 3177 3180 3184 3186 3188 3192 3197 3196 3200 3205 3209 3211 3211 3213 3213 3214 3217 3218 3218 3221 3223 3226 3226 3226 3228 3228
3130 3152 3156 3157 3157 3165 3169 3172 3176 3182 3184 3184 3187 3191 3194 3198 3202 3204 3204 3204 3204 3205 3207 3208 3206 3214 3216 3217 3219 3220 3221 3222 3224
3149 3152 3154 3156 3157 3156 3162 3166 3168 3176 3179 3182 3187 3191 3194 3196 3198 3199 3199 3196 3196 3196 3198 3198 3200 3201 3207 3209 3212 3214 3216 3217 3220
3144 3149 3152 3153 3154 3157 3161 3162 3165 3169 3173 3179 3183 3186 3189 3190 3192 3193 3193 3190 3189 3187 3191 3193 3195 3197 3201 3203 3204 3208 3210 3213 3214
3145 3147 3147 3149 3151 3156 3159 3161 3164 3168 3172 3175 3177 3180 3182 3184 3187 3188 3189 3187 3188 3189 3187 3187 3189 3190 3196 3198 3199 3202 3205 3206 3210
3141 3141 3145 3147 3149 3152 3156 3160 3163 3165 3168 3169 3172 3174 3177 3179 3182 3184 3185 3186 3187 3186 3186 3188 3189 3188 3189 3192 3194 3196 3198 3201 3205
3140 3142 3143 3146 3147 3150 3154 3156 3157 3160 3162 3163 3167 3169 3171 3173 3177 3180 3181 3183 3183 3183 3184 3184 3185 3186 3188 3190 3190 3192 3193 3196 3198
3141 3143 3143 3145 3147 3149 3152 3153 3154 3155 3158 3160 3162 3164 3166 3169 3172 3175 3176 3178 3179 3179 3180 3180 3182 3184 3186 3187 3187 3187 3190 3193 3195
3139 3139 3140 3142 3144 3146 3148 3150 3149 3152 3154 3157 3159 3159 3161 3165 3167 3170 3171 3173 3175 3176 3176 3177 3179 3181 3183 3183 3183 3184 3186 3190 3192
3134 3133 3135 3138 3140 3141 3142 3144 3146 3148 3151 3152 3154 3152 3155 3159 3160 3163 3165 3167 3170 3170 3170 3171 3174 3175 3177 3177 3180 3180 3181 3183 3185
3131 3132 3134 3133 3136 3138 3140 3141 3143 3146 3147 3150 3148 3151 3152 3153 3154 3157 3158 3160 3161 3163 3164 3165 3167 3169 3171 3172 3174 3176 3177 3178 3178
3126 3128 3131 3133 3135 3137 3138 3139 3141 3142 3142 3143 3145 3147 3148 3149 3152 3150 3152 3153 3156 3156 3154 3156 3160 3162 3165 3166 3167 3170 3170 3171 3171